Tracking 29967 objects as of 5-Dec-2024
HD Live streaming from Space Station
objects crossing your sky now

YZ-1 R/B

Track YZ-1 R/B now!


NORAD ID: 43625
Int'l Code: 2018-072D
Perigee: 22,150.9 km
Apogee: 22,739.0 km
Inclination: 55.9 °
Period: 811.4 minutes
Semi major axis: 28815 km
RCS: Unknown
Launch date: September 19, 2018
Source: People's Republic of China (PRC)
Launch site: Xichang Space Center, China (XSC)

Note: This is a ROCKET BODY
Your satellite tracking list
Your tracking list is empty




NASA's NSSDC Master Catalog

Two Line Element Set (TLE):
1 43625U 18072D   24339.54617316 -.00000001  00000-0  00000+0 0  9993
2 43625  55.9407  88.4866 0102050  56.1842 304.7691  1.77481861 40250
Source of the keplerian elements: AFSPC